Donnes mto: Actuelle dimanche, 19/05/2019 22:15
Date Horaire Temp. E. Hum. E. P.atmo. Pluie Vent Direction Direction Ensoleilleme Ev.Tr. UV Solaire P. de rose Temp au vent Rafales
19/05/2019 22:15 10,9 C 91 % 1011,2 hPa 0,0 mm 1,2 km/h (1 Bft) S-SO 209 0 min 0,000 mm 0,0 UV-I 0 W/m 9,5 C 10,9 C 4,8 km/h (1 Bft)
19/05/2019 22:10 10,9 C 91 % 1011,1 hPa 0,0 mm 2,1 km/h (1 Bft) NO 318 0 min 0,000 mm 0,0 UV-I 0 W/m 9,5 C 10,9 C 6,4 km/h (2 Bft)
19/05/2019 22:05 10,9 C 91 % 1011,0 hPa 0,0 mm 2,6 km/h (1 Bft) O-SO 238 0 min 0,000 mm 0,0 UV-I 0 W/m 9,5 C 10,9 C 6,4 km/h (2 Bft)
19/05/2019 22:00 10,8 C 91 % 1011,0 hPa 0,0 mm 3,1 km/h (1 Bft) O-SO 244 0 min 0,000 mm 0,0 UV-I 0 W/m 9,4 C 10,8 C 6,4 km/h (2 Bft)
19/05/2019 21:55 10,8 C 91 % 1010,9 hPa 0,0 mm 1,7 km/h (1 Bft) O-SO 237 0 min 0,000 mm 0,0 UV-I 0 W/m 9,4 C 10,8 C 4,8 km/h (1 Bft)
19/05/2019 21:50 10,8 C 91 % 1010,9 hPa 0,0 mm 1,4 km/h (1 Bft) O-NO 294 0 min 0,000 mm 0,0 UV-I 0 W/m 9,4 C 10,8 C 4,8 km/h (1 Bft)
19/05/2019 21:45 10,8 C 90 % 1010,9 hPa 0,0 mm 1,1 km/h (1 Bft) NO 306 0 min 0,000 mm 0,0 UV-I 0 W/m 9,2 C 10,8 C 4,8 km/h (1 Bft)
19/05/2019 21:40 10,9 C 90 % 1010,8 hPa 0,0 mm 1,3 km/h (1 Bft) SO 219 0 min 0,000 mm 0,0 UV-I 0 W/m 9,3 C 10,9 C 4,8 km/h (1 Bft)
19/05/2019 21:35 10,9 C 90 % 1010,8 hPa 0,0 mm 1,6 km/h (1 Bft) O 280 0 min 0,000 mm 0,0 UV-I 0 W/m 9,3 C 10,9 C 4,8 km/h (1 Bft)
19/05/2019 21:30 10,9 C 91 % 1010,8 hPa 0,0 mm 3,4 km/h (1 Bft) SO 233 0 min 0,000 mm 0,0 UV-I 0 W/m 9,5 C 10,9 C 6,4 km/h (2 Bft)
19/05/2019 21:25 11,0 C 90 % 1010,8 hPa 0,0 mm 2,2 km/h (1 Bft) O-SO 252 0 min 0,000 mm 0,0 UV-I 0 W/m 9,4 C 11,0 C 6,4 km/h (2 Bft)
19/05/2019 21:20 11,0 C 90 % 1010,8 hPa 0,0 mm 2,0 km/h (1 Bft) SO 229 0 min 0,000 mm 0,0 UV-I 0 W/m 9,4 C 11,0 C 6,4 km/h (2 Bft)
19/05/2019 21:15 11,0 C 90 % 1010,7 hPa 0,0 mm 2,4 km/h (1 Bft) SO 227 0 min 0,000 mm 0,0 UV-I 2 W/m 9,4 C 11,0 C 6,4 km/h (2 Bft)
19/05/2019 21:10 11,1 C 90 % 1010,5 hPa 0,0 mm 0,1 km/h (0 Bft) O 273 0 min 0,000 mm 0,0 UV-I 6 W/m 9,5 C 11,1 C 3,2 km/h (1 Bft)
19/05/2019 21:05 11,1 C 90 % 1010,5 hPa 0,0 mm 0,7 km/h (0 Bft) SO 235 0 min 0,026 mm 0,0 UV-I 8 W/m 9,5 C 11,1 C 4,8 km/h (1 Bft)
19/05/2019 21:00 11,2 C 90 % 1010,6 hPa 0,0 mm 0,3 km/h (0 Bft) SO 232 0 min 0,000 mm 0,0 UV-I 10 W/m 9,6 C 11,2 C 3,2 km/h (1 Bft)
19/05/2019 20:55 11,2 C 90 % 1010,4 hPa 0,0 mm 1,5 km/h (1 Bft) SO 214 0 min 0,000 mm 0,0 UV-I 13 W/m 9,6 C 11,2 C 4,8 km/h (1 Bft)
19/05/2019 20:50 11,2 C 90 % 1010,4 hPa 0,0 mm 2,8 km/h (1 Bft) SO 234 0 min 0,000 mm 0,0 UV-I 12 W/m 9,6 C 11,2 C 6,4 km/h (2 Bft)
19/05/2019 20:45 11,3 C 90 % 1010,5 hPa 0,0 mm 1,9 km/h (1 Bft) S-SO 206 0 min 0,000 mm 0,0 UV-I 15 W/m 9,7 C 11,3 C 6,4 km/h (2 Bft)
19/05/2019 20:40 11,3 C 90 % 1010,5 hPa 0,0 mm 3,3 km/h (1 Bft) SO 221 0 min 0,000 mm 0,0 UV-I 17 W/m 9,7 C 11,3 C 6,4 km/h (2 Bft)
19/05/2019 20:35 11,4 C 90 % 1010,3 hPa 0,0 mm 3,2 km/h (1 Bft) SO 218 0 min 0,000 mm 0,0 UV-I 18 W/m 9,8 C 11,4 C 6,4 km/h (2 Bft)
19/05/2019 20:30 11,4 C 90 % 1010,3 hPa 0,0 mm 2,8 km/h (1 Bft) SO 223 0 min 0,000 mm 0,0 UV-I 18 W/m 9,8 C 11,4 C 6,4 km/h (2 Bft)
19/05/2019 20:25 11,4 C 90 % 1010,3 hPa 0,0 mm 3,3 km/h (1 Bft) SO 227 0 min 0,000 mm 0,0 UV-I 22 W/m 9,8 C 11,4 C 6,4 km/h (2 Bft)
19/05/2019 20:20 11,5 C 89 % 1010,3 hPa 0,0 mm 2,5 km/h (1 Bft) O-SO 248 0 min 0,000 mm 0,0 UV-I 26 W/m 9,8 C 11,5 C 6,4 km/h (2 Bft)
19/05/2019 20:15 11,6 C 90 % 1010,2 hPa 0,0 mm 1,9 km/h (1 Bft) O-NO 290 0 min 0,000 mm 0,0 UV-I 37 W/m 10,0 C 11,6 C 4,8 km/h (1 Bft)
19/05/2019 20:10 11,6 C 90 % 1010,2 hPa 0,0 mm 2,1 km/h (1 Bft) NO 311 0 min 0,000 mm 0,0 UV-I 52 W/m 10,0 C 11,6 C 6,4 km/h (2 Bft)
19/05/2019 20:05 11,6 C 90 % 1010,2 hPa 0,0 mm 3,4 km/h (1 Bft) SO 225 0 min 0,050 mm 0,0 UV-I 62 W/m 10,0 C 11,6 C 8,0 km/h (2 Bft)
19/05/2019 20:00 11,6 C 89 % 1010,2 hPa 0,0 mm 1,3 km/h (1 Bft) NO 312 0 min 0,000 mm 0,0 UV-I 66 W/m 9,8 C 11,6 C 6,4 km/h (2 Bft)
19/05/2019 19:55 11,6 C 89 % 1010,2 hPa 0,0 mm 2,9 km/h (1 Bft) O-NO 292 0 min 0,000 mm 0,0 UV-I 84 W/m 9,8 C 11,6 C 9,7 km/h (2 Bft)
19/05/2019 19:50 11,6 C 89 % 1010,1 hPa 0,0 mm 2,8 km/h (1 Bft) O-SO 250 0 min 0,000 mm 0,0 UV-I 106 W/m 9,8 C 11,6 C 9,7 km/h (2 Bft)
19/05/2019 19:45 11,7 C 89 % 1010,1 hPa 0,0 mm 3,0 km/h (1 Bft) O 273 0 min 0,000 mm 0,0 UV-I 127 W/m 9,9 C 11,7 C 6,4 km/h (2 Bft)
19/05/2019 19:40 11,7 C 89 % 1010,1 hPa 0,0 mm 2,1 km/h (1 Bft) O-SO 254 0 min 0,000 mm 0,0 UV-I 146 W/m 9,9 C 11,7 C 4,8 km/h (1 Bft)
19/05/2019 19:35 11,6 C 89 % 1010,1 hPa 0,0 mm 1,7 km/h (1 Bft) SO 221 0 min 0,000 mm 0,0 UV-I 145 W/m 9,8 C 11,6 C 6,4 km/h (2 Bft)
19/05/2019 19:30 11,4 C 89 % 1009,9 hPa 0,0 mm 2,5 km/h (1 Bft) O-SO 237 0 min 0,000 mm 0,0 UV-I 125 W/m 9,7 C 11,4 C 8,0 km/h (2 Bft)
19/05/2019 19:25 11,4 C 92 % 1009,9 hPa 0,0 mm 3,6 km/h (1 Bft) O-SO 246 0 min 0,000 mm 0,0 UV-I 91 W/m 10,1 C 11,4 C 6,4 km/h (2 Bft)
19/05/2019 19:20 11,3 C 89 % 1009,8 hPa 0,0 mm 3,1 km/h (1 Bft) O 281 0 min 0,000 mm 0,0 UV-I 95 W/m 9,6 C 11,3 C 8,0 km/h (2 Bft)
19/05/2019 19:15 11,3 C 88 % 1009,8 hPa 0,0 mm 2,7 km/h (1 Bft) O 271 0 min 0,000 mm 0,0 UV-I 91 W/m 9,4 C 11,3 C 6,4 km/h (2 Bft)
19/05/2019 19:10 11,3 C 88 % 1009,8 hPa 0,0 mm 2,7 km/h (1 Bft) O 275 0 min 0,000 mm 0,0 UV-I 80 W/m 9,4 C 11,3 C 8,0 km/h (2 Bft)
19/05/2019 19:05 11,2 C 88 % 1009,7 hPa 0,0 mm 2,5 km/h (1 Bft) O 259 0 min 0,026 mm 0,0 UV-I 79 W/m 9,3 C 11,2 C 6,4 km/h (2 Bft)
19/05/2019 19:00 11,3 C 87 % 1009,8 hPa 0,0 mm 2,0 km/h (1 Bft) O-SO 244 0 min 0,000 mm 0,0 UV-I 79 W/m 9,2 C 11,3 C 6,4 km/h (2 Bft)
19/05/2019 18:55 11,3 C 86 % 1009,7 hPa 0,2 mm 3,4 km/h (1 Bft) O-NO 302 0 min 0,000 mm 0,0 UV-I 81 W/m 9,0 C 11,3 C 11,3 km/h (2 Bft)
19/05/2019 18:50 11,6 C 85 % 1009,8 hPa 0,4 mm 3,1 km/h (1 Bft) O 272 0 min 0,000 mm 0,0 UV-I 58 W/m 9,2 C 11,6 C 12,9 km/h (3 Bft)
19/05/2019 18:45 12,0 C 83 % 1009,8 hPa 0,2 mm 4,2 km/h (1 Bft) NO 314 0 min 0,000 mm 0,0 UV-I 30 W/m 9,2 C 12,0 C 12,9 km/h (3 Bft)
19/05/2019 18:40 12,7 C 81 % 1009,8 hPa 0,0 mm 3,8 km/h (1 Bft) O 276 0 min 0,000 mm 0,0 UV-I 18 W/m 9,5 C 12,7 C 11,3 km/h (2 Bft)
19/05/2019 18:35 13,2 C 79 % 1009,7 hPa 0,0 mm 4,8 km/h (1 Bft) O 281 0 min 0,000 mm 0,0 UV-I 11 W/m 9,6 C 13,2 C 17,7 km/h (3 Bft)
19/05/2019 18:30 13,7 C 80 % 1009,6 hPa 0,0 mm 4,4 km/h (1 Bft) NO 306 0 min 0,000 mm 0,0 UV-I 18 W/m 10,3 C 13,7 C 17,7 km/h (3 Bft)
19/05/2019 18:25 13,8 C 79 % 1009,2 hPa 0,0 mm 4,4 km/h (1 Bft) O-NO 293 0 min 0,000 mm 0,0 UV-I 64 W/m 10,2 C 13,8 C 8,0 km/h (2 Bft)
19/05/2019 18:20 13,8 C 79 % 1009,1 hPa 0,0 mm 5,6 km/h (2 Bft) O-SO 237 0 min 0,000 mm 0,0 UV-I 75 W/m 10,2 C 13,8 C 12,9 km/h (3 Bft)
19/05/2019 18:15 13,8 C 79 % 1009,2 hPa 0,0 mm 5,5 km/h (2 Bft) SO 232 0 min 0,000 mm 0,0 UV-I 74 W/m 10,2 C 13,8 C 12,9 km/h (3 Bft)
19/05/2019 18:10 13,8 C 79 % 1009,2 hPa 0,0 mm 2,8 km/h (1 Bft) SO 230 0 min 0,000 mm 0,0 UV-I 51 W/m 10,2 C 13,8 C 6,4 km/h (2 Bft)
19/05/2019 18:05 13,9 C 78 % 1009,2 hPa 0,0 mm 5,2 km/h (1 Bft) O 263 0 min 0,127 mm 0,0 UV-I 49 W/m 10,1 C 13,9 C 11,3 km/h (2 Bft)
19/05/2019 18:00 14,1 C 79 % 1009,2 hPa 0,0 mm 5,1 km/h (1 Bft) SO 219 0 min 0,000 mm 0,1 UV-I 83 W/m 10,5 C 14,1 C 11,3 km/h (2 Bft)
19/05/2019 17:55 14,1 C 78 % 1009,3 hPa 0,0 mm 4,2 km/h (1 Bft) SO 217 0 min 0,000 mm 0,2 UV-I 120 W/m 10,3 C 14,1 C 9,7 km/h (2 Bft)
19/05/2019 17:50 14,1 C 78 % 1009,3 hPa 0,0 mm 5,8 km/h (2 Bft) O 259 0 min 0,000 mm 0,0 UV-I 101 W/m 10,3 C 14,1 C 12,9 km/h (3 Bft)
19/05/2019 17:45 14,2 C 78 % 1009,4 hPa 0,0 mm 4,4 km/h (1 Bft) SO 219 0 min 0,000 mm 0,1 UV-I 117 W/m 10,4 C 14,2 C 9,7 km/h (2 Bft)
19/05/2019 17:40 14,3 C 78 % 1009,3 hPa 0,0 mm 3,7 km/h (1 Bft) S-SO 212 0 min 0,000 mm 0,7 UV-I 159 W/m 10,5 C 14,3 C 9,7 km/h (2 Bft)
19/05/2019 17:35 14,3 C 76 % 1009,4 hPa 0,0 mm 4,6 km/h (1 Bft) SO 222 0 min 0,000 mm 0,8 UV-I 185 W/m 10,1 C 14,3 C 11,3 km/h (2 Bft)
19/05/2019 17:30 14,6 C 76 % 1009,3 hPa 0,0 mm 5,3 km/h (1 Bft) O-SO 257 0 min 0,000 mm 1,1 UV-I 205 W/m 10,4 C 14,6 C 12,9 km/h (3 Bft)
19/05/2019 17:25 14,6 C 78 % 1009,4 hPa 0,0 mm 3,3 km/h (1 Bft) O-NO 296 0 min 0,000 mm 1,5 UV-I 267 W/m 10,8 C 14,6 C 12,9 km/h (3 Bft)
19/05/2019 17:20 14,6 C 77 % 1009,4 hPa 0,0 mm 5,3 km/h (1 Bft) S-SO 202 5 min 0,000 mm 1,8 UV-I 361 W/m 10,6 C 14,6 C 14,5 km/h (3 Bft)
19/05/2019 17:15 14,5 C 78 % 1009,3 hPa 0,0 mm 5,1 km/h (1 Bft) SO 222 5 min 0,000 mm 1,6 UV-I 393 W/m 10,7 C 14,5 C 11,3 km/h (2 Bft)
19/05/2019 17:10 14,3 C 78 % 1009,4 hPa 0,0 mm 3,9 km/h (1 Bft) O-SO 239 0 min 0,000 mm 1,1 UV-I 247 W/m 10,5 C 14,3 C 9,7 km/h (2 Bft)
19/05/2019 17:05 14,4 C 78 % 1009,4 hPa 0,0 mm 4,1 km/h (1 Bft) O 271 0 min 0,178 mm 1,1 UV-I 211 W/m 10,6 C 14,4 C 9,7 km/h (2 Bft)
19/05/2019 17:00 14,4 C 77 % 1009,5 hPa 0,0 mm 1,1 km/h (1 Bft) NO 319 0 min 0,000 mm 1,4 UV-I 273 W/m 10,4 C 14,4 C 6,4 km/h (2 Bft)
19/05/2019 16:55 14,7 C 77 % 1009,5 hPa 0,0 mm 2,9 km/h (1 Bft) SO 222 5 min 0,000 mm 2,4 UV-I 458 W/m 10,7 C 14,7 C 6,4 km/h (2 Bft)
19/05/2019 16:50 14,4 C 79 % 1009,6 hPa 0,0 mm 2,5 km/h (1 Bft) NO 317 5 min 0,000 mm 2,6 UV-I 534 W/m 10,8 C 14,4 C 8,0 km/h (2 Bft)
19/05/2019 16:45 14,1 C 80 % 1009,7 hPa 0,0 mm 1,2 km/h (1 Bft) NE 42 5 min 0,000 mm 2,2 UV-I 434 W/m 10,7 C 14,1 C 4,8 km/h (1 Bft)
19/05/2019 16:40 13,8 C 80 % 1009,6 hPa 0,0 mm 0,9 km/h (0 Bft) NO 319 0 min 0,000 mm 1,6 UV-I 319 W/m 10,4 C 13,8 C 4,8 km/h (1 Bft)
19/05/2019 16:35 13,6 C 79 % 1009,6 hPa 0,0 mm 3,3 km/h (1 Bft) O-SO 252 0 min 0,000 mm 1,2 UV-I 221 W/m 10,0 C 13,6 C 8,0 km/h (2 Bft)
19/05/2019 16:30 13,6 C 79 % 1009,6 hPa 0,0 mm 3,3 km/h (1 Bft) O 276 0 min 0,000 mm 1,3 UV-I 240 W/m 10,0 C 13,6 C 8,0 km/h (2 Bft)
19/05/2019 16:25 13,6 C 79 % 1009,6 hPa 0,0 mm 5,0 km/h (1 Bft) O-NO 294 0 min 0,000 mm 1,6 UV-I 284 W/m 10,0 C 13,6 C 11,3 km/h (2 Bft)
19/05/2019 16:20 13,6 C 80 % 1009,7 hPa 0,0 mm 4,0 km/h (1 Bft) NO 309 0 min 0,000 mm 1,1 UV-I 217 W/m 10,2 C 13,6 C 9,7 km/h (2 Bft)
19/05/2019 16:15 13,6 C 81 % 1009,8 hPa 0,0 mm 3,0 km/h (1 Bft) O-SO 258 0 min 0,000 mm 1,5 UV-I 259 W/m 10,4 C 13,6 C 8,0 km/h (2 Bft)
19/05/2019 16:10 13,4 C 81 % 1009,8 hPa 0,0 mm 2,9 km/h (1 Bft) N-NO 334 0 min 0,000 mm 1,9 UV-I 313 W/m 10,2 C 13,4 C 11,3 km/h (2 Bft)
19/05/2019 16:05 13,4 C 80 % 1009,7 hPa 0,0 mm 4,5 km/h (1 Bft) O-SO 248 0 min 0,127 mm 0,9 UV-I 177 W/m 10,0 C 13,4 C 14,5 km/h (3 Bft)
19/05/2019 16:00 13,6 C 80 % 1009,7 hPa 0,0 mm 1,9 km/h (1 Bft) O-NO 290 0 min 0,000 mm 0,9 UV-I 164 W/m 10,2 C 13,6 C 6,4 km/h (2 Bft)
19/05/2019 15:55 13,4 C 80 % 1009,7 hPa 0,0 mm 3,4 km/h (1 Bft) S 190 0 min 0,000 mm 1,6 UV-I 257 W/m 10,0 C 13,4 C 12,9 km/h (3 Bft)
19/05/2019 15:50 13,3 C 80 % 1009,7 hPa 0,0 mm 3,6 km/h (1 Bft) O-NO 303 0 min 0,000 mm 1,6 UV-I 260 W/m 9,9 C 13,3 C 11,3 km/h (2 Bft)
19/05/2019 15:45 13,3 C 80 % 1009,7 hPa 0,0 mm 3,9 km/h (1 Bft) NO 307 0 min 0,000 mm 1,5 UV-I 252 W/m 9,9 C 13,3 C 12,9 km/h (3 Bft)
19/05/2019 15:40 13,3 C 80 % 1009,7 hPa 0,0 mm 3,6 km/h (1 Bft) O-SO 242 0 min 0,000 mm 1,4 UV-I 230 W/m 9,9 C 13,3 C 11,3 km/h (2 Bft)
19/05/2019 15:35 13,4 C 80 % 1009,8 hPa 0,0 mm 3,1 km/h (1 Bft) NO 319 0 min 0,000 mm 1,0 UV-I 180 W/m 10,0 C 13,4 C 11,3 km/h (2 Bft)
19/05/2019 15:30 13,4 C 81 % 1009,7 hPa 0,0 mm 4,6 km/h (1 Bft) E-NE 59 0 min 0,000 mm 1,4 UV-I 233 W/m 10,2 C 13,4 C 14,5 km/h (3 Bft)
19/05/2019 15:25 13,4 C 82 % 1009,6 hPa 0,0 mm 4,4 km/h (1 Bft) SO 234 0 min 0,000 mm 2,2 UV-I 329 W/m 10,4 C 13,4 C 17,7 km/h (3 Bft)
19/05/2019 15:20 13,2 C 83 % 1009,6 hPa 0,0 mm 3,1 km/h (1 Bft) O-SO 250 0 min 0,000 mm 2,2 UV-I 341 W/m 10,4 C 13,2 C 8,0 km/h (2 Bft)
19/05/2019 15:15 13,1 C 84 % 1009,7 hPa 0,0 mm 2,6 km/h (1 Bft) O 259 0 min 0,000 mm 2,0 UV-I 313 W/m 10,5 C 13,1 C 12,9 km/h (3 Bft)
19/05/2019 15:10 12,9 C 83 % 1009,7 hPa 0,0 mm 1,5 km/h (1 Bft) O-NO 302 0 min 0,000 mm 1,8 UV-I 277 W/m 10,1 C 12,9 C 6,4 km/h (2 Bft)
19/05/2019 15:05 12,7 C 84 % 1009,7 hPa 0,0 mm 1,5 km/h (1 Bft) NO 315 0 min 0,076 mm 1,7 UV-I 255 W/m 10,1 C 12,7 C 8,0 km/h (2 Bft)
19/05/2019 15:00 12,6 C 84 % 1009,7 hPa 0,0 mm 2,0 km/h (1 Bft) N-NO 329 0 min 0,000 mm 1,5 UV-I 232 W/m 10,0 C 12,6 C 11,3 km/h (2 Bft)
19/05/2019 14:55 12,4 C 84 % 1009,6 hPa 0,0 mm 2,4 km/h (1 Bft) NO 319 0 min 0,000 mm 1,3 UV-I 208 W/m 9,8 C 12,4 C 11,3 km/h (2 Bft)
19/05/2019 14:50 12,3 C 84 % 1009,6 hPa 0,0 mm 2,1 km/h (1 Bft) O 259 0 min 0,000 mm 0,9 UV-I 152 W/m 9,7 C 12,3 C 11,3 km/h (2 Bft)
19/05/2019 14:45 12,2 C 84 % 1009,6 hPa 0,0 mm 3,0 km/h (1 Bft) SO 223 0 min 0,000 mm 1,1 UV-I 170 W/m 9,6 C 12,2 C 9,7 km/h (2 Bft)
19/05/2019 14:40 12,2 C 84 % 1009,7 hPa 0,0 mm 0,8 km/h (0 Bft) N-NO 346 0 min 0,000 mm 0,8 UV-I 140 W/m 9,6 C 12,2 C 6,4 km/h (2 Bft)
19/05/2019 14:35 12,2 C 84 % 1009,6 hPa 0,0 mm 1,4 km/h (1 Bft) NE 49 0 min 0,000 mm 0,0 UV-I 74 W/m 9,6 C 12,2 C 6,4 km/h (2 Bft)
19/05/2019 14:30 12,2 C 84 % 1009,6 hPa 0,0 mm 1,7 km/h (1 Bft) N-NO 333 0 min 0,000 mm 0,0 UV-I 66 W/m 9,6 C 12,2 C 8,0 km/h (2 Bft)
19/05/2019 14:25 12,2 C 85 % 1009,6 hPa 0,0 mm 0,8 km/h (0 Bft) O 273 0 min 0,000 mm 0,7 UV-I 123 W/m 9,8 C 12,2 C 6,4 km/h (2 Bft)
19/05/2019 14:20 12,1 C 85 % 1009,7 hPa 0,0 mm 2,1 km/h (1 Bft) O 280 0 min 0,000 mm 1,3 UV-I 200 W/m 9,7 C 12,1 C 11,3 km/h (2 Bft)
19/05/2019 14:15 11,9 C 85 % 1009,7 hPa 0,0 mm 4,4 km/h (1 Bft) O-NO 300 0 min 0,000 mm 1,6 UV-I 234 W/m 9,5 C 11,9 C 9,7 km/h (2 Bft)
19/05/2019 14:10 11,9 C 85 % 1009,7 hPa 0,0 mm 3,6 km/h (1 Bft) O 277 0 min 0,000 mm 1,5 UV-I 218 W/m 9,5 C 11,9 C 9,7 km/h (2 Bft)
19/05/2019 14:05 11,8 C 85 % 1009,6 hPa 0,0 mm 3,2 km/h (1 Bft) O-SO 239 0 min 0,076 mm 0,8 UV-I 125 W/m 9,4 C 11,8 C 9,7 km/h (2 Bft)
19/05/2019 14:00 12,0 C 84 % 1009,7 hPa 0,0 mm 4,7 km/h (1 Bft) O 265 0 min 0,000 mm 0,5 UV-I 92 W/m 9,4 C 12,0 C 12,9 km/h (3 Bft)
19/05/2019 13:55 12,1 C 84 % 1009,6 hPa 0,0 mm 3,9 km/h (1 Bft) O-NO 300 0 min 0,000 mm 1,0 UV-I 143 W/m 9,5 C 12,1 C 9,7 km/h (2 Bft)
19/05/2019 13:50 12,1 C 85 % 1009,6 hPa 0,0 mm 3,8 km/h (1 Bft) O-NO 287 0 min 0,000 mm 1,3 UV-I 195 W/m 9,7 C 12,1 C 12,9 km/h (3 Bft)
19/05/2019 13:45 12,0 C 86 % 1009,6 hPa 0,0 mm 1,3 km/h (1 Bft) SO 226 0 min 0,000 mm 1,6 UV-I 231 W/m 9,7 C 12,0 C 11,3 km/h (2 Bft)
19/05/2019 13:40 11,7 C 85 % 1009,7 hPa 0,0 mm 2,0 km/h (1 Bft) N-NO 337 0 min 0,000 mm 1,8 UV-I 252 W/m 9,3 C 11,7 C 8,0 km/h (2 Bft)
19/05/2019 13:35 11,6 C 84 % 1009,6 hPa 0,0 mm 3,9 km/h (1 Bft) N-NO 341 0 min 0,000 mm 0,8 UV-I 135 W/m 9,0 C 11,6 C 11,3 km/h (2 Bft)
19/05/2019 13:30 11,7 C 84 % 1009,6 hPa 0,0 mm 3,2 km/h (1 Bft) O 273 0 min 0,000 mm 0,6 UV-I 99 W/m 9,1 C 11,7 C 11,3 km/h (2 Bft)
19/05/2019 13:25 11,8 C 84 % 1009,6 hPa 0,0 mm 2,7 km/h (1 Bft) SO 235 0 min 0,000 mm 0,3 UV-I 84 W/m 9,2 C 11,8 C 6,4 km/h (2 Bft)
19/05/2019 13:20 11,9 C 84 % 1009,6 hPa 0,0 mm 1,7 km/h (1 Bft) O-SO 242 0 min 0,000 mm 0,0 UV-I 64 W/m 9,3 C 11,9 C 4,8 km/h (1 Bft)
19/05/2019 13:15 12,0 C 84 % 1009,6 hPa 0,0 mm 1,7 km/h (1 Bft) O-NO 292 0 min 0,000 mm 0,6 UV-I 109 W/m 9,4 C 12,0 C 9,7 km/h (2 Bft)
19/05/2019 13:10 11,9 C 84 % 1009,5 hPa 0,0 mm 2,1 km/h (1 Bft) O-NO 289 0 min 0,000 mm 1,0 UV-I 152 W/m 9,3 C 11,9 C 9,7 km/h (2 Bft)
19/05/2019 13:05 11,9 C 84 % 1009,5 hPa 0,0 mm 1,7 km/h (1 Bft) O 281 0 min 0,102 mm 0,8 UV-I 133 W/m 9,3 C 11,9 C 4,8 km/h (1 Bft)
19/05/2019 13:00 11,9 C 84 % 1009,5 hPa 0,0 mm 2,1 km/h (1 Bft) NO 317 0 min 0,000 mm 1,1 UV-I 162 W/m 9,3 C 11,9 C 11,3 km/h (2 Bft)
19/05/2019 12:55 11,9 C 83 % 1009,5 hPa 0,0 mm 4,3 km/h (1 Bft) O-NO 294 0 min 0,000 mm 0,8 UV-I 130 W/m 9,1 C 11,9 C 11,3 km/h (2 Bft)
19/05/2019 12:50 12,2 C 83 % 1009,5 hPa 0,0 mm 2,9 km/h (1 Bft) O-SO 237 0 min 0,000 mm 0,7 UV-I 124 W/m 9,4 C 12,2 C 8,0 km/h (2 Bft)
19/05/2019 12:45 12,2 C 84 % 1009,4 hPa 0,0 mm 1,2 km/h (1 Bft) N-NE 24 0 min 0,000 mm 1,5 UV-I 215 W/m 9,6 C 12,2 C 6,4 km/h (2 Bft)
19/05/2019 12:40 12,1 C 84 % 1009,5 hPa 0,0 mm 1,6 km/h (1 Bft) NO 325 0 min 0,000 mm 1,1 UV-I 177 W/m 9,5 C 12,1 C 8,0 km/h (2 Bft)
19/05/2019 12:35 11,9 C 84 % 1009,5 hPa 0,0 mm 4,9 km/h (1 Bft) SO 229 0 min 0,000 mm 1,3 UV-I 205 W/m 9,3 C 11,9 C 12,9 km/h (3 Bft)
19/05/2019 12:30 11,8 C 84 % 1009,4 hPa 0,0 mm 5,4 km/h (2 Bft) O-SO 248 0 min 0,000 mm 1,8 UV-I 274 W/m 9,2 C 11,8 C 12,9 km/h (3 Bft)
19/05/2019 12:25 11,8 C 84 % 1009,5 hPa 0,0 mm 5,7 km/h (2 Bft) O-NO 299 0 min 0,000 mm 1,3 UV-I 211 W/m 9,2 C 11,8 C 12,9 km/h (3 Bft)
19/05/2019 12:20 11,9 C 85 % 1009,4 hPa 0,0 mm 2,1 km/h (1 Bft) SO 222 0 min 0,000 mm 1,2 UV-I 203 W/m 9,5 C 11,9 C 9,7 km/h (2 Bft)
19/05/2019 12:15 11,7 C 85 % 1009,6 hPa 0,0 mm 1,5 km/h (1 Bft) NO 304 0 min 0,000 mm 1,5 UV-I 244 W/m 9,3 C 11,7 C 12,9 km/h (3 Bft)
19/05/2019 12:10 11,6 C 84 % 1009,6 hPa 0,0 mm 3,4 km/h (1 Bft) O-NO 302 0 min 0,000 mm 1,2 UV-I 216 W/m 9,0 C 11,6 C 12,9 km/h (3 Bft)
19/05/2019 12:05 11,7 C 84 % 1009,5 hPa 0,0 mm 3,0 km/h (1 Bft) O-NO 288 0 min 0,101 mm 0,6 UV-I 125 W/m 9,1 C 11,7 C 11,3 km/h (2 Bft)
19/05/2019 12:00 11,8 C 83 % 1009,6 hPa 0,0 mm 4,8 km/h (1 Bft) O 281 0 min 0,000 mm 0,9 UV-I 158 W/m 9,0 C 11,8 C 17,7 km/h (3 Bft)
19/05/2019 11:55 12,0 C 84 % 1009,5 hPa 0,0 mm 3,1 km/h (1 Bft) O 260 0 min 0,000 mm 0,9 UV-I 163 W/m 9,4 C 12,0 C 12,9 km/h (3 Bft)
19/05/2019 11:50 12,1 C 85 % 1009,5 hPa 0,0 mm 1,4 km/h (1 Bft) N-NO 330 0 min 0,000 mm 1,5 UV-I 248 W/m 9,7 C 12,1 C 11,3 km/h (2 Bft)
19/05/2019 11:45 11,9 C 85 % 1009,5 hPa 0,0 mm 1,6 km/h (1 Bft) O-NO 298 0 min 0,000 mm 1,5 UV-I 248 W/m 9,5 C 11,9 C 4,8 km/h (1 Bft)
19/05/2019 11:40 11,8 C 85 % 1009,5 hPa 0,0 mm 3,3 km/h (1 Bft) NE 40 0 min 0,000 mm 1,6 UV-I 259 W/m 9,4 C 11,8 C 12,9 km/h (3 Bft)
19/05/2019 11:35 11,7 C 86 % 1009,4 hPa 0,0 mm 2,2 km/h (1 Bft) NO 323 0 min 0,000 mm 1,5 UV-I 248 W/m 9,4 C 11,7 C 8,0 km/h (2 Bft)
19/05/2019 11:30 11,6 C 85 % 1009,4 hPa 0,0 mm 3,3 km/h (1 Bft) O-NO 292 0 min 0,000 mm 1,4 UV-I 235 W/m 9,2 C 11,6 C 11,3 km/h (2 Bft)
19/05/2019 11:25 11,7 C 84 % 1009,5 hPa 0,0 mm 3,4 km/h (1 Bft) NO 306 0 min 0,000 mm 0,4 UV-I 124 W/m 9,1 C 11,7 C 11,3 km/h (2 Bft)
19/05/2019 11:20 11,8 C 85 % 1009,5 hPa 0,0 mm 1,6 km/h (1 Bft) NO 304 0 min 0,000 mm 0,8 UV-I 163 W/m 9,4 C 11,8 C 6,4 km/h (2 Bft)
19/05/2019 11:15 11,8 C 85 % 1009,5 hPa 0,0 mm 3,7 km/h (1 Bft) O 262 0 min 0,000 mm 1,4 UV-I 256 W/m 9,4 C 11,8 C 9,7 km/h (2 Bft)
19/05/2019 11:10 11,7 C 86 % 1009,4 hPa 0,0 mm 2,8 km/h (1 Bft) O-NO 285 0 min 0,000 mm 1,2 UV-I 230 W/m 9,4 C 11,7 C 6,4 km/h (2 Bft)
19/05/2019 11:05 11,6 C 85 % 1009,3 hPa 0,0 mm 2,7 km/h (1 Bft) O-NO 291 0 min 0,102 mm 0,8 UV-I 165 W/m 9,2 C 11,6 C 11,3 km/h (2 Bft)
19/05/2019 11:00 11,7 C 86 % 1009,3 hPa 0,0 mm 3,4 km/h (1 Bft) O-NO 301 0 min 0,000 mm 0,8 UV-I 180 W/m 9,4 C 11,7 C 9,7 km/h (2 Bft)
19/05/2019 10:55 11,6 C 87 % 1009,3 hPa 0,0 mm 1,9 km/h (1 Bft) SO 229 0 min 0,000 mm 1,0 UV-I 210 W/m 9,5 C 11,6 C 11,3 km/h (2 Bft)
19/05/2019 10:50 11,4 C 87 % 1009,4 hPa 0,0 mm 3,5 km/h (1 Bft) O-NO 298 0 min 0,000 mm 1,5 UV-I 261 W/m 9,3 C 11,4 C 9,7 km/h (2 Bft)
19/05/2019 10:45 11,3 C 88 % 1009,4 hPa 0,0 mm 3,1 km/h (1 Bft) O-SO 252 0 min 0,000 mm 1,3 UV-I 247 W/m 9,4 C 11,3 C 6,4 km/h (2 Bft)
19/05/2019 10:40 11,3 C 88 % 1009,3 hPa 0,0 mm 2,4 km/h (1 Bft) E-NE 69 0 min 0,000 mm 1,0 UV-I 199 W/m 9,4 C 11,3 C 6,4 km/h (2 Bft)
19/05/2019 10:35 11,2 C 89 % 1009,3 hPa 0,0 mm 1,0 km/h (0 Bft) N-NO 344 0 min 0,000 mm 1,1 UV-I 205 W/m 9,5 C 11,2 C 8,0 km/h (2 Bft)
19/05/2019 10:30 11,0 C 89 % 1009,2 hPa 0,0 mm 3,2 km/h (1 Bft) O-NO 291 0 min 0,000 mm 1,5 UV-I 286 W/m 9,3 C 11,0 C 9,7 km/h (2 Bft)
19/05/2019 10:25 10,8 C 90 % 1009,2 hPa 0,0 mm 4,8 km/h (1 Bft) O-SO 253 0 min 0,000 mm 1,0 UV-I 190 W/m 9,2 C 10,8 C 9,7 km/h (2 Bft)
19/05/2019 10:20 10,9 C 90 % 1009,2 hPa 0,0 mm 5,1 km/h (1 Bft) N-NO 328 0 min 0,000 mm 0,6 UV-I 140 W/m 9,3 C 10,9 C 9,7 km/h (2 Bft)
19/05/2019 10:15 11,0 C 91 % 1009,2 hPa 0,0 mm 3,1 km/h (1 Bft) O-SO 245 0 min 0,000 mm 0,7 UV-I 166 W/m 9,6 C 11,0 C 9,7 km/h (2 Bft)
19/05/2019 10:10 10,8 C 91 % 1009,2 hPa 0,0 mm 1,8 km/h (1 Bft) SO 222 0 min 0,000 mm 0,8 UV-I 195 W/m 9,4 C 10,8 C 6,4 km/h (2 Bft)
19/05/2019 10:05 10,7 C 91 % 1009,1 hPa 0,0 mm 0,9 km/h (0 Bft) SO 225 0 min 0,051 mm 0,7 UV-I 186 W/m 9,3 C 10,7 C 4,8 km/h (1 Bft)
19/05/2019 10:00 10,4 C 91 % 1009,2 hPa 0,0 mm 0,9 km/h (0 Bft) S-SO 198 0 min 0,000 mm 0,5 UV-I 156 W/m 9,0 C 10,4 C 4,8 km/h (1 Bft)
19/05/2019 09:55 10,3 C 91 % 1009,1 hPa 0,0 mm 1,5 km/h (1 Bft) O 276 0 min 0,000 mm 0,0 UV-I 99 W/m 8,9 C 10,3 C 4,8 km/h (1 Bft)
19/05/2019 09:50 10,2 C 91 % 1009,1 hPa 0,0 mm 2,2 km/h (1 Bft) NO 311 0 min 0,000 mm 0,0 UV-I 95 W/m 8,8 C 10,2 C 6,4 km/h (2 Bft)
19/05/2019 09:45 10,2 C 92 % 1009,0 hPa 0,0 mm 2,4 km/h (1 Bft) SO 225 0 min 0,000 mm 0,0 UV-I 88 W/m 9,0 C 10,2 C 8,0 km/h (2 Bft)
19/05/2019 09:40 10,1 C 92 % 1009,0 hPa 0,0 mm 1,8 km/h (1 Bft) O 275 0 min 0,000 mm 0,0 UV-I 69 W/m 8,9 C 10,1 C 6,4 km/h (2 Bft)
19/05/2019 09:35 10,2 C 92 % 1009,0 hPa 0,0 mm 2,9 km/h (1 Bft) NO 311 0 min 0,000 mm 0,0 UV-I 56 W/m 9,0 C 10,2 C 8,0 km/h (2 Bft)
19/05/2019 09:30 10,2 C 92 % 1008,9 hPa 0,0 mm 2,7 km/h (1 Bft) SO 215 0 min 0,000 mm 0,0 UV-I 53 W/m 9,0 C 10,2 C 6,4 km/h (2 Bft)
19/05/2019 09:25 10,2 C 92 % 1008,9 hPa 0,0 mm 4,9 km/h (1 Bft) O 265 0 min 0,000 mm 0,0 UV-I 81 W/m 9,0 C 10,2 C 9,7 km/h (2 Bft)
19/05/2019 09:20 10,2 C 92 % 1008,9 hPa 0,0 mm 5,7 km/h (2 Bft) S-SO 212 0 min 0,000 mm 0,2 UV-I 140 W/m 9,0 C 10,2 C 9,7 km/h (2 Bft)
19/05/2019 09:15 10,2 C 92 % 1008,9 hPa 0,0 mm 5,0 km/h (1 Bft) SO 222 0 min 0,000 mm 0,4 UV-I 151 W/m 9,0 C 10,2 C 11,3 km/h (2 Bft)
19/05/2019 09:10 10,1 C 92 % 1008,9 hPa 0,0 mm 4,6 km/h (1 Bft) NO 305 0 min 0,000 mm 0,0 UV-I 88 W/m 8,9 C 10,1 C 9,7 km/h (2 Bft)
19/05/2019 09:05 10,1 C 92 % 1008,9 hPa 0,0 mm 3,8 km/h (1 Bft) SO 226 0 min 0,025 mm 0,0 UV-I 89 W/m 8,9 C 10,1 C 9,7 km/h (2 Bft)
19/05/2019 09:00 9,9 C 92 % 1009,0 hPa 0,0 mm 4,1 km/h (1 Bft) SO 225 0 min 0,000 mm 0,0 UV-I 67 W/m 8,7 C 9,9 C 8,0 km/h (2 Bft)
19/05/2019 08:55 9,9 C 92 % 1009,0 hPa 0,0 mm 2,4 km/h (1 Bft) SO 227 0 min 0,000 mm 0,0 UV-I 91 W/m 8,7 C 9,9 C 6,4 km/h (2 Bft)
19/05/2019 08:50 9,9 C 92 % 1009,0 hPa 0,0 mm 3,1 km/h (1 Bft) SO 226 0 min 0,000 mm 0,0 UV-I 93 W/m 8,7 C 9,9 C 6,4 km/h (2 Bft)
19/05/2019 08:45 9,8 C 92 % 1008,9 hPa 0,0 mm 3,7 km/h (1 Bft) SO 230 0 min 0,000 mm 0,0 UV-I 101 W/m 8,6 C 9,8 C 8,0 km/h (2 Bft)
19/05/2019 08:40 9,8 C 92 % 1008,9 hPa 0,0 mm 3,7 km/h (1 Bft) O 265 0 min 0,000 mm 0,0 UV-I 90 W/m 8,6 C 9,8 C 6,4 km/h (2 Bft)
19/05/2019 08:35 9,8 C 92 % 1008,9 hPa 0,0 mm 5,3 km/h (1 Bft) SO 229 0 min 0,000 mm 0,0 UV-I 83 W/m 8,6 C 9,4 C 11,3 km/h (2 Bft)
19/05/2019 08:30 9,8 C 92 % 1008,8 hPa 0,0 mm 5,3 km/h (1 Bft) SO 232 0 min 0,000 mm 0,0 UV-I 71 W/m 8,6 C 9,4 C 8,0 km/h (2 Bft)
19/05/2019 08:25 9,8 C 92 % 1008,9 hPa 0,0 mm 3,2 km/h (1 Bft) O-SO 247 0 min 0,000 mm 0,0 UV-I 69 W/m 8,6 C 9,8 C 6,4 km/h (2 Bft)
19/05/2019 08:20 9,7 C 92 % 1008,9 hPa 0,0 mm 4,0 km/h (1 Bft) O-NO 284 0 min 0,000 mm 0,0 UV-I 77 W/m 8,5 C 9,7 C 8,0 km/h (2 Bft)
19/05/2019 08:15 9,6 C 92 % 1008,9 hPa 0,0 mm 3,0 km/h (1 Bft) O-SO 244 0 min 0,000 mm 0,0 UV-I 68 W/m 8,4 C 9,6 C 8,0 km/h (2 Bft)
19/05/2019 08:10 9,6 C 92 % 1008,9 hPa 0,0 mm 1,8 km/h (1 Bft) SO 226 0 min 0,000 mm 0,0 UV-I 40 W/m 8,4 C 9,6 C 6,4 km/h (2 Bft)
19/05/2019 08:05 9,6 C 92 % 1008,9 hPa 0,0 mm 3,8 km/h (1 Bft) SO 230 0 min 0,000 mm 0,0 UV-I 29 W/m 8,4 C 9,6 C 8,0 km/h (2 Bft)
19/05/2019 08:00 9,5 C 92 % 1008,9 hPa 0,0 mm 3,4 km/h (1 Bft) SO 225 0 min 0,000 mm 0,0 UV-I 28 W/m 8,3 C 9,5 C 8,0 km/h (2 Bft)
19/05/2019 07:55 9,5 C 92 % 1008,9 hPa 0,0 mm 4,4 km/h (1 Bft) O-SO 239 0 min 0,000 mm 0,0 UV-I 32 W/m 8,3 C 9,5 C 9,7 km/h (2 Bft)
19/05/2019 07:50 9,5 C 92 % 1008,8 hPa 0,0 mm 3,5 km/h (1 Bft) O 280 0 min 0,000 mm 0,0 UV-I 18 W/m 8,3 C 9,5 C 8,0 km/h (2 Bft)
19/05/2019 07:45 9,5 C 92 % 1008,9 hPa 0,0 mm 2,6 km/h (1 Bft) SO 225 0 min 0,000 mm 0,0 UV-I 15 W/m 8,3 C 9,5 C 6,4 km/h (2 Bft)
19/05/2019 07:40 9,5 C 92 % 1008,9 hPa 0,0 mm 4,8 km/h (1 Bft) O-SO 239 0 min 0,000 mm 0,0 UV-I 16 W/m 8,3 C 9,3 C 11,3 km/h (2 Bft)
19/05/2019 07:35 9,5 C 92 % 1008,8 hPa 0,0 mm 3,6 km/h (1 Bft) SO 225 0 min 0,000 mm 0,0 UV-I 17 W/m 8,3 C 9,5 C 6,4 km/h (2 Bft)
19/05/2019 07:30 9,5 C 92 % 1008,8 hPa 0,0 mm 2,8 km/h (1 Bft) SO 227 0 min 0,000 mm 0,0 UV-I 11 W/m 8,3 C 9,5 C 6,4 km/h (2 Bft)
19/05/2019 07:25 9,4 C 92 % 1008,8 hPa 0,0 mm 2,9 km/h (1 Bft) SO 225 0 min 0,000 mm 0,0 UV-I 9 W/m 8,2 C 9,4 C 6,4 km/h (2 Bft)
19/05/2019 07:20 9,4 C 92 % 1008,8 hPa 0,0 mm 2,7 km/h (1 Bft) SO 223 0 min 0,000 mm 0,0 UV-I 9 W/m 8,2 C 9,4 C 6,4 km/h (2 Bft)
19/05/2019 07:15 9,4 C 92 % 1008,8 hPa 0,0 mm 2,3 km/h (1 Bft) O-SO 245 0 min 0,000 mm 0,0 UV-I 8 W/m 8,2 C 9,4 C 6,4 km/h (2 Bft)
19/05/2019 07:10 9,4 C 92 % 1008,8 hPa 0,0 mm 4,5 km/h (1 Bft) SO 230 0 min 0,000 mm 0,0 UV-I 7 W/m 8,2 C 9,4 C 8,0 km/h (2 Bft)
19/05/2019 07:05 9,4 C 92 % 1008,8 hPa 0,0 mm 2,7 km/h (1 Bft) SO 227 0 min 0,000 mm 0,0 UV-I 6 W/m 8,2 C 9,4 C 6,4 km/h (2 Bft)
19/05/2019 07:00 9,4 C 91 % 1008,8 hPa 0,0 mm 4,6 km/h (1 Bft) O 264 0 min 0,000 mm 0,0 UV-I 0 W/m 8,0 C 9,2 C 8,0 km/h (2 Bft)
19/05/2019 06:55 9,4 C 91 % 1008,7 hPa 0,0 mm 2,7 km/h (1 Bft) NO 323 0 min 0,000 mm 0,0 UV-I 0 W/m 8,0 C 9,4 C 9,7 km/h (2 Bft)
19/05/2019 06:50 9,4 C 91 % 1008,7 hPa 0,0 mm 2,7 km/h (1 Bft) O-SO 246 0 min 0,000 mm 0,0 UV-I 0 W/m 8,0 C 9,4 C 6,4 km/h (2 Bft)
19/05/2019 06:45 9,4 C 91 % 1008,6 hPa 0,0 mm 3,2 km/h (1 Bft) SO 226 0 min 0,000 mm 0,0 UV-I 0 W/m 8,0 C 9,4 C 6,4 km/h (2 Bft)
19/05/2019 06:40 9,4 C 91 % 1008,6 hPa 0,0 mm 2,0 km/h (1 Bft) O-NO 302 0 min 0,000 mm 0,0 UV-I 0 W/m 8,0 C 9,4 C 4,8 km/h (1 Bft)
19/05/2019 06:35 9,4 C 91 % 1008,5 hPa 0,0 mm 2,4 km/h (1 Bft) SO 219 0 min 0,000 mm 0,0 UV-I 0 W/m 8,0 C 9,4 C 6,4 km/h (2 Bft)
19/05/2019 06:30 9,4 C 91 % 1008,5 hPa 0,0 mm 4,1 km/h (1 Bft) O-SO 253 0 min 0,000 mm 0,0 UV-I 0 W/m 8,0 C 9,4 C 8,0 km/h (2 Bft)
19/05/2019 06:25 9,4 C 91 % 1008,5 hPa 0,0 mm 1,8 km/h (1 Bft) O-SO 258 0 min 0,000 mm 0,0 UV-I 0 W/m 8,0 C 9,4 C 8,0 km/h (2 Bft)
19/05/2019 06:20 9,4 C 91 % 1008,5 hPa 0,0 mm 1,9 km/h (1 Bft) O-SO 253 0 min 0,000 mm 0,0 UV-I 0 W/m 8,0 C 9,4 C 8,0 km/h (2 Bft)
19/05/2019 06:15 9,4 C 91 % 1008,5 hPa 0,0 mm 1,2 km/h (1 Bft) O-SO 242 0 min 0,000 mm 0,0 UV-I 0 W/m 8,0 C 9,4 C 4,8 km/h (1 Bft)
19/05/2019 06:10 9,4 C 91 % 1008,5 hPa 0,0 mm 2,9 km/h (1 Bft) O-NO 298 0 min 0,000 mm 0,0 UV-I 0 W/m 8,0 C 9,4 C 6,4 km/h (2 Bft)
19/05/2019 06:05 9,4 C 91 % 1008,5 hPa 0,0 mm 4,5 km/h (1 Bft) SO 235 0 min 0,000 mm 0,0 UV-I 0 W/m 8,0 C 9,4 C 8,0 km/h (2 Bft)
19/05/2019 06:00 9,4 C 91 % 1008,5 hPa 0,0 mm 4,9 km/h (1 Bft) SO 225 0 min 0,000 mm 0,0 UV-I 0 W/m 8,0 C 9,1 C 8,0 km/h (2 Bft)
19/05/2019 05:55 9,4 C 91 % 1008,6 hPa 0,0 mm 3,3 km/h (1 Bft) SO 226 0 min 0,000 mm 0,0 UV-I 0 W/m 8,0 C 9,4 C 8,0 km/h (2 Bft)
19/05/2019 05:50 9,4 C 91 % 1008,6 hPa 0,0 mm 2,8 km/h (1 Bft) SO 218 0 min 0,000 mm 0,0 UV-I 0 W/m 8,0 C 9,4 C 8,0 km/h (2 Bft)
19/05/2019 05:45 9,4 C 91 % 1008,6 hPa 0,0 mm 2,5 km/h (1 Bft) SO 219 0 min 0,000 mm 0,0 UV-I 0 W/m 8,0 C 9,4 C 6,4 km/h (2 Bft)
19/05/2019 05:40 9,4 C 91 % 1008,5 hPa 0,0 mm 2,5 km/h (1 Bft) O 265 0 min 0,000 mm 0,0 UV-I 0 W/m 8,0 C 9,4 C 6,4 km/h (2 Bft)
19/05/2019 05:35 9,4 C 91 % 1008,5 hPa 0,0 mm 4,2 km/h (1 Bft) S-SO 207 0 min 0,000 mm 0,0 UV-I 0 W/m 8,0 C 9,4 C 8,0 km/h (2 Bft)
19/05/2019 05:30 9,4 C 91 % 1008,6 hPa 0,0 mm 2,0 km/h (1 Bft) SO 221 0 min 0,000 mm 0,0 UV-I 0 W/m 8,0 C 9,4 C 4,8 km/h (1 Bft)
19/05/2019 05:25 9,4 C 91 % 1008,5 hPa 0,0 mm 2,1 km/h (1 Bft) O-NO 284 0 min 0,000 mm 0,0 UV-I 0 W/m 8,0 C 9,4 C 6,4 km/h (2 Bft)
19/05/2019 05:20 9,5 C 91 % 1008,5 hPa 0,0 mm 0,9 km/h (0 Bft) O-SO 244 0 min 0,000 mm 0,0 UV-I 0 W/m 8,1 C 9,5 C 4,8 km/h (1 Bft)
19/05/2019 05:15 9,5 C 91 % 1008,6 hPa 0,0 mm 2,7 km/h (1 Bft) O-NO 295 0 min 0,000 mm 0,0 UV-I 0 W/m 8,1 C 9,5 C 6,4 km/h (2 Bft)
19/05/2019 05:10 9,5 C 91 % 1008,6 hPa 0,0 mm 3,8 km/h (1 Bft) O-SO 244 0 min 0,000 mm 0,0 UV-I 0 W/m 8,1 C 9,5 C 6,4 km/h (2 Bft)
19/05/2019 05:05 9,5 C 91 % 1008,5 hPa 0,0 mm 2,5 km/h (1 Bft) O-SO 238 0 min 0,000 mm 0,0 UV-I 0 W/m 8,1 C 9,5 C 6,4 km/h (2 Bft)
19/05/2019 05:00 9,5 C 91 % 1008,5 hPa 0,0 mm 1,0 km/h (0 Bft) O-SO 243 0 min 0,000 mm 0,0 UV-I 0 W/m 8,1 C 9,5 C 4,8 km/h (1 Bft)
19/05/2019 04:55 9,5 C 91 % 1008,6 hPa 0,0 mm 2,8 km/h (1 Bft) SO 218 0 min 0,000 mm 0,0 UV-I 0 W/m 8,1 C 9,5 C 8,0 km/h (2 Bft)
19/05/2019 04:50 9,5 C 91 % 1008,5 hPa 0,0 mm 1,5 km/h (1 Bft) S-SO 210 0 min 0,000 mm 0,0 UV-I 0 W/m 8,1 C 9,5 C 4,8 km/h (1 Bft)
19/05/2019 04:45 9,4 C 91 % 1008,5 hPa 0,0 mm 3,5 km/h (1 Bft) SO 230 0 min 0,000 mm 0,0 UV-I 0 W/m 8,0 C 9,4 C 8,0 km/h (2 Bft)
19/05/2019 04:40 9,5 C 91 % 1008,5 hPa 0,0 mm 1,7 km/h (1 Bft) O-SO 242 0 min 0,000 mm 0,0 UV-I 0 W/m 8,1 C 9,5 C 4,8 km/h (1 Bft)
19/05/2019 04:35 9,5 C 91 % 1008,5 hPa 0,0 mm 1,5 km/h (1 Bft) O-SO 238 0 min 0,000 mm 0,0 UV-I 0 W/m 8,1 C 9,5 C 4,8 km/h (1 Bft)
19/05/2019 04:30 9,5 C 91 % 1008,5 hPa 0,0 mm 1,9 km/h (1 Bft) SO 214 0 min 0,000 mm 0,0 UV-I 0 W/m 8,1 C 9,5 C 6,4 km/h (2 Bft)
19/05/2019 04:25 9,5 C 91 % 1008,6 hPa 0,0 mm 3,0 km/h (1 Bft) SO 221 0 min 0,000 mm 0,0 UV-I 0 W/m 8,1 C 9,5 C 6,4 km/h (2 Bft)
19/05/2019 04:20 9,5 C 91 % 1008,5 hPa 0,0 mm 3,9 km/h (1 Bft) SO 227 0 min 0,000 mm 0,0 UV-I 0 W/m 8,1 C 9,5 C 9,7 km/h (2 Bft)
19/05/2019 04:15 9,5 C 91 % 1008,5 hPa 0,0 mm 2,3 km/h (1 Bft) O 275 0 min 0,000 mm 0,0 UV-I 0 W/m 8,1 C 9,5 C 6,4 km/h (2 Bft)
19/05/2019 04:10 9,5 C 91 % 1008,5 hPa 0,0 mm 1,7 km/h (1 Bft) SO 225 0 min 0,000 mm 0,0 UV-I 0 W/m 8,1 C 9,5 C 4,8 km/h (1 Bft)
19/05/2019 04:05 9,5 C 91 % 1008,5 hPa 0,0 mm 1,8 km/h (1 Bft) O-SO 243 0 min 0,000 mm 0,0 UV-I 0 W/m 8,1 C 9,5 C 4,8 km/h (1 Bft)
19/05/2019 04:00 9,5 C 91 % 1008,6 hPa 0,0 mm 3,1 km/h (1 Bft) SO 227 0 min 0,000 mm 0,0 UV-I 0 W/m 8,1 C 9,5 C 6,4 km/h (2 Bft)
19/05/2019 03:55 9,6 C 91 % 1008,6 hPa 0,0 mm 3,3 km/h (1 Bft) SO 230 0 min 0,000 mm 0,0 UV-I 0 W/m 8,2 C 9,6 C 6,4 km/h (2 Bft)
19/05/2019 03:50 9,6 C 91 % 1008,6 hPa 0,0 mm 2,7 km/h (1 Bft) O 266 0 min 0,000 mm 0,0 UV-I 0 W/m 8,2 C 9,6 C 9,7 km/h (2 Bft)
19/05/2019 03:45 9,6 C 91 % 1008,6 hPa 0,0 mm 1,5 km/h (1 Bft) SO 221 0 min 0,000 mm 0,0 UV-I 0 W/m 8,2 C 9,6 C 4,8 km/h (1 Bft)
19/05/2019 03:40 9,6 C 91 % 1008,7 hPa 0,0 mm 1,5 km/h (1 Bft) SO 235 0 min 0,000 mm 0,0 UV-I 0 W/m 8,2 C 9,6 C 4,8 km/h (1 Bft)
19/05/2019 03:35 9,6 C 90 % 1008,6 hPa 0,0 mm 0,6 km/h (0 Bft) NO 305 0 min 0,000 mm 0,0 UV-I 0 W/m 8,0 C 9,6 C 4,8 km/h (1 Bft)
19/05/2019 03:30 9,6 C 90 % 1008,6 hPa 0,0 mm 1,3 km/h (1 Bft) O 266 0 min 0,000 mm 0,0 UV-I 0 W/m 8,0 C 9,6 C 4,8 km/h (1 Bft)
19/05/2019 03:25 9,5 C 90 % 1008,6 hPa 0,0 mm 1,7 km/h (1 Bft) S-SO 209 0 min 0,000 mm 0,0 UV-I 0 W/m 7,9 C 9,5 C 6,4 km/h (2 Bft)
19/05/2019 03:20 9,5 C 90 % 1008,6 hPa 0,0 mm 3,0 km/h (1 Bft) SO 218 0 min 0,000 mm 0,0 UV-I 0 W/m 7,9 C 9,5 C 8,0 km/h (2 Bft)
19/05/2019 03:15 9,5 C 90 % 1008,6 hPa 0,0 mm 3,9 km/h (1 Bft) N-NO 336 0 min 0,000 mm 0,0 UV-I 0 W/m 7,9 C 9,5 C 8,0 km/h (2 Bft)
19/05/2019 03:10 9,5 C 90 % 1008,6 hPa 0,0 mm 1,4 km/h (1 Bft) O-SO 243 0 min 0,000 mm 0,0 UV-I 0 W/m 7,9 C 9,5 C 8,0 km/h (2 Bft)
19/05/2019 03:05 9,5 C 90 % 1008,7 hPa 0,0 mm 1,2 km/h (1 Bft) SO 234 0 min 0,000 mm 0,0 UV-I 0 W/m 7,9 C 9,5 C 4,8 km/h (1 Bft)
19/05/2019 03:00 9,5 C 90 % 1008,6 hPa 0,0 mm 1,6 km/h (1 Bft) O 264 0 min 0,000 mm 0,0 UV-I 0 W/m 7,9 C 9,5 C 6,4 km/h (2 Bft)
19/05/2019 02:55 9,4 C 90 % 1008,7 hPa 0,0 mm 2,6 km/h (1 Bft) SO 225 0 min 0,000 mm 0,0 UV-I 0 W/m 7,8 C 9,4 C 6,4 km/h (2 Bft)
19/05/2019 02:50 9,4 C 90 % 1008,7 hPa 0,0 mm 3,9 km/h (1 Bft) SO 221 0 min 0,000 mm 0,0 UV-I 0 W/m 7,8 C 9,4 C 8,0 km/h (2 Bft)
19/05/2019 02:45 9,4 C 90 % 1008,7 hPa 0,0 mm 2,8 km/h (1 Bft) SO 221 0 min 0,000 mm 0,0 UV-I 0 W/m 7,8 C 9,4 C 6,4 km/h (2 Bft)
19/05/2019 02:40 9,4 C 90 % 1008,8 hPa 0,0 mm 3,4 km/h (1 Bft) S-SO 207 0 min 0,000 mm 0,0 UV-I 0 W/m 7,8 C 9,4 C 8,0 km/h (2 Bft)
19/05/2019 02:35 9,5 C 90 % 1008,8 hPa 0,0 mm 3,1 km/h (1 Bft) SO 236 0 min 0,000 mm 0,0 UV-I 0 W/m 7,9 C 9,5 C 6,4 km/h (2 Bft)
19/05/2019 02:30 9,4 C 90 % 1008,9 hPa 0,0 mm 3,2 km/h (1 Bft) SO 222 0 min 0,000 mm 0,0 UV-I 0 W/m 7,8 C 9,4 C 6,4 km/h (2 Bft)
19/05/2019 02:25 9,5 C 90 % 1009,0 hPa 0,0 mm 4,4 km/h (1 Bft) O 273 0 min 0,000 mm 0,0 UV-I 0 W/m 7,9 C 9,5 C 8,0 km/h (2 Bft)
19/05/2019 02:20 9,4 C 90 % 1009,1 hPa 0,0 mm 3,1 km/h (1 Bft) SO 223 0 min 0,000 mm 0,0 UV-I 0 W/m 7,8 C 9,4 C 8,0 km/h (2 Bft)
19/05/2019 02:15 9,4 C 90 % 1009,1 hPa 0,0 mm 3,3 km/h (1 Bft) O-SO 257 0 min 0,000 mm 0,0 UV-I 0 W/m 7,8 C 9,4 C 6,4 km/h (2 Bft)
19/05/2019 02:10 9,5 C 90 % 1009,1 hPa 0,0 mm 3,4 km/h (1 Bft) SO 233 0 min 0,000 mm 0,0 UV-I 0 W/m 7,9 C 9,5 C 6,4 km/h (2 Bft)
19/05/2019 02:05 9,4 C 90 % 1009,1 hPa 0,0 mm 4,2 km/h (1 Bft) O-SO 237 0 min 0,000 mm 0,0 UV-I 0 W/m 7,8 C 9,4 C 8,0 km/h (2 Bft)
19/05/2019 02:00 9,4 C 90 % 1009,2 hPa 0,0 mm 2,8 km/h (1 Bft) SO 232 0 min 0,000 mm 0,0 UV-I 0 W/m 7,8 C 9,4 C 8,0 km/h (2 Bft)
19/05/2019 01:55 9,4 C 90 % 1009,2 hPa 0,0 mm 3,7 km/h (1 Bft) SO 218 0 min 0,000 mm 0,0 UV-I 0 W/m 7,8 C 9,4 C 8,0 km/h (2 Bft)
19/05/2019 01:50 9,4 C 90 % 1009,2 hPa 0,0 mm 0,9 km/h (0 Bft) O-SO 257 0 min 0,000 mm 0,0 UV-I 0 W/m 7,8 C 9,4 C 4,8 km/h (1 Bft)
19/05/2019 01:45 9,4 C 90 % 1009,2 hPa 0,0 mm 2,5 km/h (1 Bft) S-SO 212 0 min 0,000 mm 0,0 UV-I 0 W/m 7,8 C 9,4 C 6,4 km/h (2 Bft)
19/05/2019 01:40 9,4 C 90 % 1009,2 hPa 0,0 mm 3,0 km/h (1 Bft) SO 223 0 min 0,000 mm 0,0 UV-I 0 W/m 7,8 C 9,4 C 6,4 km/h (2 Bft)
19/05/2019 01:35 9,5 C 90 % 1009,3 hPa 0,0 mm 3,8 km/h (1 Bft) SO 223 0 min 0,000 mm 0,0 UV-I 0 W/m 7,9 C 9,5 C 8,0 km/h (2 Bft)
19/05/2019 01:30 9,5 C 89 % 1009,3 hPa 0,0 mm 3,6 km/h (1 Bft) SO 222 0 min 0,000 mm 0,0 UV-I 0 W/m 7,8 C 9,5 C 8,0 km/h (2 Bft)
19/05/2019 01:25 9,6 C 89 % 1009,3 hPa 0,0 mm 3,6 km/h (1 Bft) O-SO 243 0 min 0,000 mm 0,0 UV-I 0 W/m 7,9 C 9,6 C 8,0 km/h (2 Bft)
19/05/2019 01:20 9,6 C 89 % 1009,4 hPa 0,0 mm 4,4 km/h (1 Bft) SO 228 0 min 0,000 mm 0,0 UV-I 0 W/m 7,9 C 9,6 C 8,0 km/h (2 Bft)
19/05/2019 01:15 9,6 C 89 % 1009,5 hPa 0,0 mm 5,0 km/h (1 Bft) O 269 0 min 0,000 mm 0,0 UV-I 0 W/m 7,9 C 9,3 C 12,9 km/h (3 Bft)
19/05/2019 01:10 9,7 C 89 % 1009,5 hPa 0,0 mm 3,4 km/h (1 Bft) S-SO 207 0 min 0,000 mm 0,0 UV-I 0 W/m 8,0 C 9,7 C 8,0 km/h (2 Bft)
19/05/2019 01:05 9,7 C 89 % 1009,5 hPa 0,0 mm 3,6 km/h (1 Bft) SO 217 0 min 0,000 mm 0,0 UV-I 0 W/m 8,0 C 9,7 C 9,7 km/h (2 Bft)
19/05/2019 01:00 9,7 C 89 % 1009,5 hPa 0,0 mm 4,0 km/h (1 Bft) SO 233 0 min 0,000 mm 0,0 UV-I 0 W/m 8,0 C 9,7 C 9,7 km/h (2 Bft)
19/05/2019 00:55 9,7 C 89 % 1009,6 hPa 0,0 mm 3,8 km/h (1 Bft) SO 221 0 min 0,000 mm 0,0 UV-I 0 W/m 8,0 C 9,7 C 8,0 km/h (2 Bft)
19/05/2019 00:50 9,7 C 89 % 1009,5 hPa 0,0 mm 4,0 km/h (1 Bft) O-SO 241 0 min 0,000 mm 0,0 UV-I 0 W/m 8,0 C 9,7 C 9,7 km/h (2 Bft)
19/05/2019 00:45 9,8 C 89 % 1009,6 hPa 0,0 mm 2,4 km/h (1 Bft) SO 234 0 min 0,000 mm 0,0 UV-I 0 W/m 8,1 C 9,8 C 8,0 km/h (2 Bft)
19/05/2019 00:40 9,7 C 89 % 1009,6 hPa 0,0 mm 3,9 km/h (1 Bft) O-SO 248 0 min 0,000 mm 0,0 UV-I 0 W/m 8,0 C 9,7 C 9,7 km/h (2 Bft)
19/05/2019 00:35 9,8 C 89 % 1009,7 hPa 0,0 mm 5,0 km/h (1 Bft) SO 230 0 min 0,000 mm 0,0 UV-I 0 W/m 8,1 C 9,5 C 11,3 km/h (2 Bft)
19/05/2019 00:30 9,8 C 89 % 1009,7 hPa 0,0 mm 3,9 km/h (1 Bft) SO 217 0 min 0,000 mm 0,0 UV-I 0 W/m 8,1 C 9,8 C 12,9 km/h (3 Bft)
19/05/2019 00:25 9,8 C 89 % 1009,7 hPa 0,0 mm 5,8 km/h (2 Bft) SO 228 0 min 0,000 mm 0,0 UV-I 0 W/m 8,1 C 9,3 C 14,5 km/h (3 Bft)
19/05/2019 00:20 9,8 C 89 % 1009,7 hPa 0,0 mm 4,1 km/h (1 Bft) SO 227 0 min 0,000 mm 0,0 UV-I 0 W/m 8,1 C 9,8 C 9,7 km/h (2 Bft)
19/05/2019 00:15 9,9 C 89 % 1009,6 hPa 0,0 mm 3,2 km/h (1 Bft) S 188 0 min 0,000 mm 0,0 UV-I 0 W/m 8,2 C 9,9 C 6,4 km/h (2 Bft)
19/05/2019 00:10 9,9 C 89 % 1009,6 hPa 0,0 mm 2,9 km/h (1 Bft) SO 221 0 min 0,000 mm 0,0 UV-I 0 W/m 8,2 C 9,9 C 6,4 km/h (2 Bft)
19/05/2019 00:05 9,9 C 89 % 1009,6 hPa 0,0 mm 3,8 km/h (1 Bft) SO 223 0 min 0,000 mm 0,0 UV-I 0 W/m 8,2 C 9,9 C 8,0 km/h (2 Bft)
19/05/2019 00:00 9,9 C 89 % 1009,5 hPa 0,0 mm 4,6 km/h (1 Bft) S-SO 206 0 min 0,000 mm 0,0 UV-I 0 W/m 8,2 C 9,8 C 12,9 km/h (3 Bft)
_ Min-Heure 07:25 17:35 06:35 - 21:10 - - - - - - 01:30 06:00 21:10
Minimum _ 9,4 C 76 % 1008,5 hPa - 0,1 km/h (0 Bft) - - - - - - 7,8 C 9,1 C 3,2 km/h (1 Bft)
_ Max-Heure 16:55 19:25 22:15 18:50 17:50 - - 17:20 17:05 16:50 16:50 17:25 16:55 18:35
Maximum _ 14,7 C 92 % 1011,2 hPa 0,4 mm 5,8 km/h
O (2 Bft)
- - 5 min 0,178 mm 2,6 UV-I 534 W/m 10,8 C 14,7 C 17,7 km/h
SO (3 Bft)
Moyenne _ 11,0 C 87 % 1009,4 hPa #0,8 mm 3,0 km/h (1 Bft) SO - #25 min. #1,067 mm 1,2 UV-I 92 W/m 9,0 C 11,0 C 8,3 km/h (2 Bft)